TRA7A LEAL-EHAM

Flight info

Callsign TRA7A
Flight time N/A
Altitude 32000
Route MITOS DCT ARGOR DCT EBROX/N0452F360 DCT LATRO DCT OLOXO DCT OKABI DCT TOU DCT ADABI DCT BOKNO DCT DEVRO DCT VANAD DCT PIWIZ DCT VADOM DCT BAMES DCT ARSAF DCT EGOZE DCT CMB DCT VEKIN DCT ADUTO N873 FERDI/N0408F240 Y18 DENUT
Aircraft B738/M-SDE2E3FGHIRWXY/LB1

Departure

Time 2026-04-29 14:22
Airport Alicante-Elche Miguel Hernández Airport (LEAL)

Arrival

Time N/A
Airport Amsterdam Airport Schiphol (EHAM)
Time Latitude Longitude Altitude Speed Heading
2026-04-29 13:46 38.28519 -0.55232 87 ft 0 kts 10°
2026-04-29 14:08 38.28504 -0.55236 91 ft 4 kts
2026-04-29 14:09 38.28477 -0.55237 90 ft 4 kts 353°
2026-04-29 14:09 38.28452 -0.55228 91 ft 4 kts 321°
2026-04-29 14:09 38.28442 -0.55212 91 ft 0 kts 279°
2026-04-29 14:12 38.28443 -0.55213 91 ft 0 kts 279°
2026-04-29 14:13 38.28445 -0.55229 90 ft 6 kts 279°
2026-04-29 14:13 38.28455 -0.55305 89 ft 8 kts 279°
2026-04-29 14:13 38.28462 -0.55357 92 ft 0 kts 279°
2026-04-29 14:14 38.28462 -0.55358 92 ft 0 kts 279°
2026-04-29 14:14 38.28466 -0.55388 92 ft 4 kts 279°
2026-04-29 14:14 38.28470 -0.55427 94 ft 4 kts 279°
2026-04-29 14:14 38.28476 -0.55464 93 ft 4 kts 280°
2026-04-29 14:15 38.28482 -0.55502 95 ft 5 kts 282°
2026-04-29 14:15 38.28491 -0.55558 95 ft 7 kts 278°
2026-04-29 14:15 38.28463 -0.55598 98 ft 7 kts 199°
2026-04-29 14:15 38.28419 -0.55608 99 ft 6 kts 190°
2026-04-29 14:16 38.28379 -0.55628 99 ft 6 kts 225°
2026-04-29 14:16 38.28374 -0.55680 100 ft 7 kts 284°
2026-04-29 14:16 38.28390 -0.55778 101 ft 12 kts 281°
2026-04-29 14:16 38.28405 -0.55880 104 ft 12 kts 279°
2026-04-29 14:17 38.28418 -0.55980 106 ft 11 kts 279°
2026-04-29 14:17 38.28435 -0.56115 107 ft 17 kts 279°
2026-04-29 14:17 38.28457 -0.56257 108 ft 16 kts 280°
2026-04-29 14:17 38.28475 -0.56394 114 ft 15 kts 279°
2026-04-29 14:18 38.28494 -0.56525 118 ft 15 kts 282°
2026-04-29 14:18 38.28511 -0.56652 120 ft 14 kts 278°
2026-04-29 14:18 38.28528 -0.56772 121 ft 14 kts 280°
2026-04-29 14:18 38.28544 -0.56888 127 ft 13 kts 279°
2026-04-29 14:19 38.28560 -0.56999 136 ft 13 kts 280°
2026-04-29 14:19 38.28575 -0.57108 140 ft 12 kts 280°
2026-04-29 14:19 38.28591 -0.57214 144 ft 12 kts 280°
2026-04-29 14:19 38.28605 -0.57318 148 ft 12 kts 279°
2026-04-29 14:20 38.28618 -0.57419 151 ft 11 kts 280°
2026-04-29 14:20 38.28588 -0.57499 154 ft 11 kts 199°
2026-04-29 14:20 38.28514 -0.57516 156 ft 11 kts 192°
2026-04-29 14:20 38.28452 -0.57484 155 ft 11 kts 114°
2026-04-29 14:21 38.28444 -0.57436 153 ft 8 kts 100°
2026-04-29 14:21 38.28379 -0.56973 133 ft 98 kts 100°
2026-04-29 14:21 38.28201 -0.55792 173 ft 167 kts 102°
2026-04-29 14:21 38.27942 -0.54193 730 ft 201 kts 102°
2026-04-29 14:22 38.27611 -0.52339 1316 ft 228 kts 103°
2026-04-29 14:22 38.27313 -0.50361 2255 ft 232 kts 95°
2026-04-29 14:22 38.27561 -0.48261 2724 ft 252 kts 67°
2026-04-29 14:22 38.28430 -0.46273 3376 ft 262 kts 56°
2026-04-29 14:23 38.29438 -0.44333 4247 ft 264 kts 54°
2026-04-29 14:23 38.30471 -0.42390 5130 ft 267 kts 54°
2026-04-29 14:23 38.31526 -0.40413 5899 ft 273 kts 54°
2026-04-29 14:23 38.32602 -0.38397 6670 ft 278 kts 54°
2026-04-29 14:24 38.33574 -0.36230 7350 ft 286 kts 65°
2026-04-29 14:24 38.34322 -0.33853 8094 ft 291 kts 69°
2026-04-29 14:24 38.35048 -0.31432 8857 ft 295 kts 68°
2026-04-29 14:24 38.35806 -0.28967 9626 ft 300 kts 68°
2026-04-29 14:25 38.36590 -0.26478 10254 ft 309 kts 67°
2026-04-29 14:25 38.37454 -0.23852 10450 ft 333 kts 67°
2026-04-29 14:25 38.38390 -0.21048 10660 ft 354 kts 67°
2026-04-29 14:25 38.39374 -0.18103 11147 ft 365 kts 67°
2026-04-29 14:26 38.40371 -0.15107 11805 ft 370 kts 67°
2026-04-29 14:26 38.41377 -0.12074 12503 ft 373 kts 68°
2026-04-29 14:26 38.42391 -0.09006 13183 ft 378 kts 68°
2026-04-29 14:26 38.43421 -0.05898 13830 ft 383 kts 66°
2026-04-29 14:27 38.44869 -0.03038 14384 ft 388 kts 45°
2026-04-29 14:27 38.47026 -0.00997 15051 ft 388 kts 25°
2026-04-29 14:27 38.49578 0.00090 15705 ft 387 kts 11°
2026-04-29 14:28 38.54896 0.01567 16897 ft 395 kts
2026-04-29 14:28 38.57596 0.02284 17513 ft 399 kts
2026-04-29 14:28 38.60287 0.03009 18119 ft 402 kts
2026-04-29 14:28 38.63039 0.03764 18652 ft 406 kts
2026-04-29 14:29 38.65811 0.04536 19203 ft 409 kts 10°
2026-04-29 14:29 38.68599 0.05321 19749 ft 411 kts 10°
2026-04-29 14:29 38.71396 0.06115 20302 ft 414 kts 10°
2026-04-29 14:29 38.74222 0.06920 20820 ft 417 kts 10°
2026-04-29 14:30 38.77065 0.07731 21327 ft 420 kts 11°
2026-04-29 14:30 38.79931 0.08549 21817 ft 424 kts 11°
2026-04-29 14:30 38.82820 0.09375 22307 ft 427 kts 11°
2026-04-29 14:30 38.85730 0.10207 22796 ft 430 kts 11°
2026-04-29 14:31 38.88659 0.11045 23275 ft 433 kts 11°
2026-04-29 14:31 38.91610 0.11890 23689 ft 436 kts 11°
2026-04-29 14:31 38.94577 0.12741 24102 ft 438 kts 11°
2026-04-29 14:31 38.97560 0.13597 24518 ft 440 kts 11°
2026-04-29 14:32 39.00553 0.14456 24914 ft 442 kts 11°
2026-04-29 14:32 39.03560 0.15320 25295 ft 444 kts 11°
2026-04-29 14:32 39.06586 0.16190 25664 ft 447 kts 11°
2026-04-29 14:32 39.09628 0.17065 26027 ft 449 kts 11°
2026-04-29 14:33 39.12683 0.17945 26389 ft 452 kts 11°
2026-04-29 14:33 39.15765 0.18834 26730 ft 454 kts 11°
2026-04-29 14:33 39.18852 0.19725 27069 ft 456 kts 11°
2026-04-29 14:33 39.21950 0.20620 27401 ft 459 kts 11°
2026-04-29 14:34 39.25080 0.21525 27739 ft 461 kts 11°
2026-04-29 14:34 39.28220 0.22434 28043 ft 464 kts 11°
2026-04-29 14:34 39.31380 0.23349 28347 ft 466 kts 11°
2026-04-29 14:34 39.34554 0.24270 28644 ft 469 kts 11°
2026-04-29 14:35 39.37741 0.25195 28946 ft 471 kts 11°
2026-04-29 14:35 39.40953 0.26128 29228 ft 474 kts 11°
2026-04-29 14:35 39.44183 0.27068 29506 ft 476 kts 11°
2026-04-29 14:35 39.47373 0.27996 29775 ft 479 kts 11°
2026-04-29 14:36 39.50678 0.28960 30054 ft 481 kts 12°
2026-04-29 14:36 39.53855 0.30185 30251 ft 484 kts 20°
2026-04-29 14:36 39.56912 0.32036 30510 ft 486 kts 29°
2026-04-29 14:36 39.59804 0.34277 30855 ft 485 kts 31°
2026-04-29 14:37 39.62666 0.36573 31224 ft 483 kts 31°
2026-04-29 14:37 39.65521 0.38882 31540 ft 482 kts 31°
2026-04-29 14:37 39.68372 0.41177 31822 ft 483 kts 30°
2026-04-29 14:37 39.71229 0.43458 32117 ft 482 kts 30°